| time (UTC) | temp C | wind direction | speed KPH | gust KPH | rain 1hr cm | rain 24hr cm | rain mn cm | humidity % | barometer mb |
| 20260507053055 | 14 | 0.0 | 0.0 | 0.00 | 0.00 | 0.00 | 63 | 1008.6 | |
| 20260507051551 | 14 | 0.0 | 0.0 | 0.00 | 0.00 | 0.00 | 63 | 1008.6 | |
| 20260507050049 | 13 | 0.0 | 0.0 | 0.00 | 0.00 | 0.00 | 63 | 1008.4 | |
| 20260507044546 | 13 | 0.0 | 0.0 | 0.00 | 0.00 | 0.00 | 63 | 1008.2 | |
| 20260507043045 | 13 | 0.0 | 0.0 | 0.00 | 0.00 | 0.00 | 64 | 1007.9 | |
| 20260507041543 | 13 | 0.0 | 0.0 | 0.00 | 0.00 | 0.00 | 64 | 1007.7 | |
| 20260507040056 | 13 | 0.0 | 0.0 | 0.00 | 0.00 | 0.00 | 64 | 1007.8 | |
| 20260507034552 | 13 | 0.0 | 0.0 | 0.00 | 0.00 | 0.00 | 64 | 1007.8 | |
| 20260507033043 | 14 | 0.0 | 0.0 | 0.00 | 0.00 | 0.00 | 64 | 1007.7 | |
| 20260507031539 | 14 | 0.0 | 0.0 | 0.00 | 0.00 | 0.00 | 64 | 1007.5 | |
| 20260507030038 | 14 | 0.0 | 0.0 | 0.00 | 0.00 | 0.00 | 65 | 1007.5 | |
| 20260507024537 | 14 | 0.0 | 0.0 | 0.00 | 0.00 | 0.00 | 66 | 1007.3 | |
| 20260507023035 | 14 | 0.0 | 0.0 | 0.00 | 0.00 | 0.00 | 66 | 1007.3 | |
| 20260507021533 | 15 | 0.0 | 0.0 | 0.00 | 0.00 | 0.00 | 66 | 1007.3 | |
| 20260507020034 | 15 | 0.0 | 0.0 | 0.00 | 0.00 | 0.00 | 66 | 1007.2 | |
| 20260507014531 | 15 | 0.0 | 0.0 | 0.00 | 0.00 | 0.00 | 66 | 1007.0 | |
| 20260507013036 | 15 | 0.0 | 0.0 | 0.00 | 0.00 | 0.00 | 66 | 1007.0 | |
| 20260507011537 | 15 | 0.0 | 0.0 | 0.00 | 0.00 | 0.00 | 65 | 1006.8 | |
| 20260507010029 | 15 | 0.0 | 0.0 | 0.00 | 0.00 | 0.00 | 65 | 1006.8 | |
| 20260507004525 | 15 | 0.0 | 0.0 | 0.00 | 0.00 | 0.00 | 65 | 1007.0 | |
| 20260507003023 | 15 | 0.0 | 0.0 | 0.00 | 0.00 | 0.00 | 64 | 1006.9 | |
| 20260507001522 | 16 | 0.0 | 0.0 | 0.00 | 0.00 | 0.00 | 63 | 1006.6 | |
| 20260507000020 | 16 | 0.0 | 0.0 | 0.00 | 0.00 | 0.00 | 64 | 1006.5 | |
| 20260506234525 | 16 | 0.0 | 0.0 | 0.00 | 0.00 | 0.00 | 65 | 1006.4 | |
| 20260506233019 | 16 | 0.0 | 0.0 | 0.00 | 0.00 | 0.00 | 69 | 1006.4 | |
| 20260506231517 | 16 | 0.0 | 0.0 | 0.00 | 0.00 | 0.00 | 69 | 1006.2 | |
| 20260506230014 | 16 | 0.0 | 0.0 | 0.00 | 0.00 | 0.00 | 68 | 1006.2 | |
| 20260506224520 | 16 | 0.0 | 0.0 | 0.00 | 0.00 | 0.00 | 64 | 1005.8 | |
| 20260506223009 | 16 | 0.0 | 0.0 | 0.00 | 0.00 | 0.00 | 64 | 1005.4 | |
| 20260506221507 | 16 | 0.0 | 0.0 | 0.00 | 0.00 | 0.00 | 64 | 1005.2 | |
| 20260506220004 | 17 | 0.0 | 0.0 | 0.00 | 0.00 | 0.00 | 63 | 1004.8 | |
| 20260506214502 | 17 | 0.0 | 0.0 | 0.00 | 0.00 | 0.00 | 63 | 1004.5 | |
| 20260506213001 | 17 | 0.0 | 0.0 | 0.00 | 0.00 | 0.00 | 62 | 1003.9 | |
| 20260506211501 | 17 | 0.0 | 0.0 | 0.00 | 0.00 | 0.00 | 62 | 1003.8 | |
| 20260506210121 | 17 | 0.0 | 0.0 | 0.00 | 0.00 | 0.00 | 61 | 1003.5 | |
| 20260506204600 | 18 | 0.0 | 0.0 | 0.00 | 0.00 | 0.00 | 61 | 1003.5 | |
| 20260506203143 | 18 | 0.0 | 0.0 | 0.00 | 0.00 | 0.00 | 60 | 1003.5 | |
| 20260506201559 | 18 | 0.0 | 0.0 | 0.00 | 0.00 | 0.00 | 60 | 1003.3 | |
| 20260506200059 | 18 | 0.0 | 0.0 | 0.00 | 0.00 | 0.00 | 59 | 1003.2 | |
| 20260506194558 | 18 | 0.0 | 0.0 | 0.00 | 0.00 | 0.00 | 58 | 1003.0 | |
| 20260506193058 | 18 | 0.0 | 0.0 | 0.00 | 0.00 | 0.00 | 57 | 1002.8 | |
| 20260506191604 | 19 | 0.0 | 0.0 | 0.00 | 0.00 | 0.00 | 57 | 1002.5 | |
| 20260506190058 | 19 | 0.0 | 0.0 | 0.00 | 0.00 | 0.00 | 55 | 1002.4 | |
| 20260506184601 | 20 | 0.0 | 0.0 | 0.00 | 0.00 | 0.00 | 55 | 1002.4 | |
| 20260506183105 | 20 | 0.0 | 0.0 | 0.00 | 0.00 | 0.00 | 54 | 1002.3 | |
| 20260506181600 | 20 | 0.0 | 0.0 | 0.00 | 0.00 | 0.00 | 53 | 1002.2 | |
| 20260506180057 | 21 | 0.0 | 0.0 | 0.00 | 0.00 | 0.00 | 52 | 1002.0 | |
| 20260506174607 | 21 | 0.0 | 0.0 | 0.00 | 0.00 | 0.00 | 50 | 1002.0 | |
| 20260506173057 | 21 | 0.0 | 0.0 | 0.00 | 0.00 | 0.00 | 49 | 1002.1 | |
| 20260506171604 | 21 | 0.0 | 0.0 | 0.00 | 0.00 | 0.00 | 49 | 1002.1 | |
| 20260506170054 | 22 | 0.0 | 0.0 | 0.00 | 0.00 | 0.00 | 48 | 1002.0 | |
| 20260506164557 | 22 | 0.0 | 0.0 | 0.00 | 0.00 | 0.00 | 45 | 1001.8 | |
| 20260506163107 | 23 | 0.0 | 0.0 | 0.00 | 0.00 | 0.00 | 45 | 1001.9 | |
| 20260506161649 | 23 | 0.0 | 0.0 | 0.00 | 0.00 | 0.00 | 45 | 1002.1 | |
| 20260506160051 | 23 | 0.0 | 0.0 | 0.00 | 0.00 | 0.00 | 45 | 1002.3 | |
| 20260506154552 | 23 | 0.0 | 0.0 | 0.00 | 0.00 | 0.00 | 45 | 1002.3 | |
| 20260506153055 | 24 | 0.0 | 0.0 | 0.00 | 0.00 | 0.00 | 43 | 1002.4 | |
| 20260506151549 | 24 | 0.0 | 0.0 | 0.00 | 0.00 | 0.00 | 42 | 1002.2 | |
| 20260506150047 | 25 | 0.0 | 0.0 | 0.00 | 0.00 | 0.00 | 41 | 1002.3 | |
| 20260506144546 | 24 | 0.0 | 0.0 | 0.00 | 0.00 | 0.00 | 40 | 1002.3 | |
| 20260506143046 | 24 | 0.0 | 0.0 | 0.00 | 0.00 | 0.00 | 40 | 1002.2 | |
| 20260506141545 | 25 | 0.0 | 0.0 | 0.00 | 0.00 | 0.00 | 37 | 1002.2 | |
| 20260506140045 | 25 | 0.0 | 0.0 | 0.00 | 0.00 | 0.00 | 38 | 1002.3 | |
| 20260506134543 | 26 | 0.0 | 0.0 | 0.00 | 0.00 | 0.00 | 37 | 1002.4 | |
| 20260506133046 | 25 | 0.0 | 0.0 | 0.00 | 0.00 | 0.00 | 37 | 1002.5 | |
| 20260506131539 | 25 | 0.0 | 0.0 | 0.00 | 0.00 | 0.00 | 37 | 1002.9 | |
| 20260506130039 | 25 | 0.0 | 0.0 | 0.00 | 0.00 | 0.00 | 38 | 1003.1 | |
| 20260506124533 | 24 | 0.0 | 0.0 | 0.00 | 0.00 | 0.00 | 38 | 1003.3 | |
| 20260506123032 | 24 | 0.0 | 0.0 | 0.00 | 0.00 | 0.00 | 39 | 1003.4 | |
| 20260506121531 | 23 | 0.0 | 0.0 | 0.00 | 0.00 | 0.00 | 38 | 1003.7 | |
| 20260506120034 | 23 | 0.0 | 0.0 | 0.00 | 0.00 | 0.00 | 39 | 1003.7 | |
| 20260506114529 | 23 | 0.0 | 0.0 | 0.00 | 0.00 | 0.00 | 43 | 1003.8 | |
| 20260506113029 | 23 | 0.0 | 0.0 | 0.00 | 0.00 | 0.00 | 43 | 1004.2 | |
| 20260506111530 | 23 | 0.0 | 0.0 | 0.00 | 0.00 | 0.00 | 43 | 1004.4 | |
| 20260506110027 | 23 | 0.0 | 0.0 | 0.00 | 0.00 | 0.00 | 43 | 1004.7 | |
| 20260506104525 | 23 | 0.0 | 0.0 | 0.00 | 0.00 | 0.00 | 45 | 1004.9 | |
| 20260506103025 | 23 | 0.0 | 0.0 | 0.00 | 0.00 | 0.00 | 44 | 1005.1 | |
| 20260506101525 | 23 | 0.0 | 0.0 | 0.00 | 0.00 | 0.00 | 46 | 1005.4 | |
| 20260506100025 | 23 | 0.0 | 0.0 | 0.00 | 0.00 | 0.00 | 46 | 1005.6 | |
| 20260506094522 | 23 | 0.0 | 0.0 | 0.00 | 0.00 | 0.00 | 45 | 1005.7 | |
| 20260506093021 | 23 | 0.0 | 0.0 | 0.00 | 0.00 | 0.00 | 44 | 1005.8 | |
| 20260506091520 | 22 | 0.0 | 0.0 | 0.00 | 0.00 | 0.00 | 45 | 1005.9 | |
| 20260506090023 | 22 | 0.0 | 0.0 | 0.00 | 0.00 | 0.00 | 45 | 1006.0 | |
| 20260506084521 | 22 | 0.0 | 0.0 | 0.00 | 0.00 | 0.00 | 49 | 1006.0 | |
| 20260506083019 | 21 | 0.0 | 0.0 | 0.00 | 0.00 | 0.00 | 49 | 1006.0 | |
| 20260506081510 | 20 | 0.0 | 0.0 | 0.00 | 0.00 | 0.00 | 52 | 1006.2 | |
| 20260506073006 | 20 | 0.0 | 0.0 | 0.00 | 0.00 | 0.00 | 55 | 1006.3 | |
| 20260506071503 | 19 | 0.0 | 0.0 | 0.00 | 0.00 | 0.00 | 56 | 1006.4 | |
| 20260506061553 | 17 | 0.0 | 0.0 | 0.00 | 0.00 | 0.00 | 60 | 1006.7 |